{"data":{"norad_id":26900,"epoch":"2026-05-25T03:38:44.387232Z","epoch_age_seconds":65903,"freshness":"FRESH","line1":"1 26900U 01039A   26145.15190263 -.00000285  00000+0  00000+0 0  9999","line2":"2 26900   6.0603  72.0583 0004503 347.7769 187.4855  1.00269882 90467","mean_motion":1.00269882,"eccentricity":0.0004503,"inclination_deg":6.0603,"raan_deg":72.0583,"arg_perigee_deg":347.7769,"mean_anomaly_deg":187.4855,"bstar":0,"rev_number":9046,"period_min":1436.1241593961,"perigee_km":35768.141430577,"apogee_km":35806.115468641,"semimajor_km":42165.265449609,"source":"CELESTRAK","updated_at":"2026-05-25T13:38:14.321616Z"}}